Change the Weather History Date:

Wednesday, September 25, 2013

  Actual Average (KLSE) Record (KLSE)
Temperature  
Mean Temperature 54 °F 59 °F  
Max Temperature 71 °F 69 °F 89 °F (1920)
Min Temperature 38 °F 48 °F 30 °F (1942)
Degree Days  
Heating Degree Days 10 7  
Month to date heating degree days 96  
Since 1 July heating degree days 116  
Cooling Degree Days 0 1  
Month to date cooling degree days 69  
Year to date cooling degree days 769  
Growing Degree Days 4 (Base 50)    
Moisture  
Dew Point 46 °F    
Average Humidity 83    
Maximum Humidity 100    
Minimum Humidity 39    
Precipitation  
Precipitation 0.00 in 0.12 in 2.32 in (2005)
Month to date precipitation 3.05  
Year to date precipitation 27.01  
Snow  
Snow 0.00 in 0.00 in 0.00 in (2002)
Month to date snowfall 0.0  
Since 1 July snowfall 0.0  
Snow Depth -    
Sea Level Pressure  
Sea Level Pressure 29.99 in    
Wind  
Wind Speed 1 mph (SE)    
Max Wind Speed 10 mph    
Max Gust Speed -    
Visibility 6 miles    
Events Fog    
T = Trace of Precipitation, MM = Missing Value Source: NWS Daily Summary

Daily Weather History Graph

Daily Weather History Graph

Search for Another Location

Airport or City:

Trip Planner

Search our weather history database for the weather conditions in past years. The results will help you decide how hot, cold, wet, or windy it might be!

Date:

Astronomy

Sep. 25, 2013 Rise Set
Actual Time 6:54 AM CDT 6:54 PM CDT
Civil Twilight 6:25 AM CDT 7:23 PM CDT
Nautical Twilight 5:51 AM CDT 7:57 PM CDT
Astronomical Twilight 5:17 AM CDT 8:31 PM CDT
Moon 10:49 PM CDT (9/25) 1:11 PM CDT (9/25)
Length of Visible Light 12h 58m
Length of Day
12h 00m
Waning Gibbous, 64% of the Moon is Illuminated
Sep 25
Waning Gibbous
Sep 26
Last Quarter
Oct 4
New
Oct 11
First Quarter
Oct 18
Full

Hourly Weather History & Observations

Time (CDT) Temp. Dew Point Humidity Pressure Visibility Wind Dir Wind Speed Gust Speed Precip Events Conditions
12:15 AM 43.3 °F 43.3 °F 100% 29.97 in 1.2 mi Calm Calm - N/A   Mist
12:35 AM 43.7 °F 43.7 °F 100% 29.98 in 3.0 mi Calm Calm - N/A   Clear
12:55 AM 43.9 °F 43.9 °F 100% 29.98 in 5.0 mi Calm Calm - N/A   Clear
1:15 AM 42.3 °F 42.3 °F 100% 29.98 in 1.5 mi Calm Calm - N/A   Mist
1:35 AM 42.1 °F 42.1 °F 100% 29.99 in 3.0 mi Calm Calm - N/A   Clear
1:55 AM 41.7 °F 41.7 °F 100% 29.99 in 5.0 mi Calm Calm - N/A   Clear
2:15 AM 41.4 °F 41.4 °F 100% 30.00 in 4.0 mi Calm Calm - N/A   Clear
2:35 AM 40.1 °F 40.1 °F 100% 29.99 in 10.0 mi Calm Calm - N/A   Clear
2:55 AM 40.1 °F 40.1 °F 100% 30.00 in 5.0 mi Calm Calm - N/A   Clear
3:15 AM 40.1 °F 40.1 °F 100% 30.00 in 7.0 mi Calm Calm - N/A   Scattered Clouds
3:35 AM 39.4 °F 39.4 °F 100% 30.00 in 7.0 mi Calm Calm - N/A   Mostly Cloudy
3:55 AM 39.7 °F 39.7 °F 100% 30.00 in 4.0 mi Calm Calm - N/A   Overcast
4:15 AM 39.0 °F 39.0 °F 100% 30.00 in 0.8 mi Calm Calm - N/A   Overcast
4:35 AM 39.4 °F 39.4 °F 100% 30.00 in 0.2 mi Calm Calm - N/A Fog Fog
4:55 AM 38.7 °F 38.7 °F 100% 30.00 in 0.2 mi Calm Calm - N/A Fog Fog
5:15 AM 38.3 °F 38.3 °F 100% 30.00 in 3.0 mi Calm Calm - N/A   Overcast
5:35 AM 38.5 °F 38.5 °F 100% 30.01 in 0.2 mi Calm Calm - N/A Fog Fog
5:55 AM 39.6 °F 39.6 °F 100% 30.01 in 0.2 mi Calm Calm - N/A Fog Fog
6:15 AM 40.1 °F 40.1 °F 100% 30.00 in 0.2 mi Calm Calm - N/A Fog Fog
6:35 AM 40.3 °F 40.3 °F 100% 30.01 in 0.2 mi Calm Calm - N/A Fog Fog
6:55 AM 41.2 °F 41.2 °F 100% 30.01 in 0.2 mi Calm Calm - N/A Fog Fog
7:15 AM 43.3 °F 43.3 °F 100% 30.01 in 0.2 mi Calm Calm - N/A Fog Fog
7:35 AM 43.7 °F 43.7 °F 100% 30.02 in 0.2 mi Calm Calm - N/A Fog Fog
7:55 AM 44.2 °F 44.2 °F 100% 30.02 in 0.2 mi Calm Calm - N/A Fog Fog
8:15 AM 44.4 °F 44.4 °F 100% 30.02 in 0.2 mi Calm Calm - N/A Fog Fog
8:35 AM 45.1 °F 45.1 °F 100% 30.03 in 0.2 mi Calm Calm - N/A Fog Fog
8:55 AM 46.4 °F 46.4 °F 100% 30.03 in 0.2 mi Calm Calm - N/A Fog Fog
9:15 AM 47.1 °F 47.1 °F 100% 30.03 in 0.2 mi Calm Calm - N/A Fog Fog
9:35 AM 47.8 °F 47.8 °F 100% 30.03 in 0.2 mi Calm Calm - N/A Fog Fog
9:55 AM 48.6 °F 48.6 °F 100% 30.03 in 0.2 mi Calm Calm - N/A Fog Fog
10:15 AM 50.0 °F 50.0 °F 100% 30.03 in 3.0 mi Calm Calm - N/A   Overcast
10:35 AM 51.4 °F 51.4 °F 100% 30.03 in 5.0 mi Calm Calm - N/A   Overcast
10:55 AM 54.1 °F 54.0 °F 99% 30.03 in 10.0 mi NE 3.5 mph - N/A   Mostly Cloudy
11:15 AM 57.6 °F 51.3 °F 79% 30.03 in 10.0 mi Calm Calm - N/A   Mostly Cloudy
11:35 AM 59.7 °F 50.9 °F 73% 30.02 in 10.0 mi Calm Calm - N/A   Mostly Cloudy
11:55 AM 63.1 °F 49.3 °F 61% 30.02 in 10.0 mi SE 8.1 mph - N/A   Mostly Cloudy
12:15 PM 64.0 °F 49.1 °F 58% 30.01 in 10.0 mi ESE 6.9 mph - N/A   Scattered Clouds
12:35 PM 66.4 °F 48.6 °F 53% 30.00 in 10.0 mi ESE 5.8 mph - N/A   Scattered Clouds
12:55 PM 67.3 °F 48.7 °F 51% 30.00 in 10.0 mi SSE 6.9 mph - N/A   Scattered Clouds
1:15 PM 67.1 °F 48.0 °F 50% 29.99 in 10.0 mi SSE 8.1 mph - N/A   Scattered Clouds
1:35 PM 67.8 °F 47.5 °F 48% 29.98 in 10.0 mi SE 8.1 mph - N/A   Clear
1:55 PM 68.4 °F 47.5 °F 47% 29.98 in 10.0 mi ESE 6.9 mph - N/A   Clear
2:15 PM 69.1 °F 47.7 °F 46% 29.97 in 10.0 mi SSE 5.8 mph - N/A   Clear
2:35 PM 70.2 °F 47.5 °F 44% 29.96 in 10.0 mi SSE 10.4 mph - N/A   Clear
2:55 PM 70.3 °F 47.1 °F 43% 29.96 in 10.0 mi ESE 3.5 mph - N/A   Clear
3:15 PM 71.1 °F 45.9 °F 40% 29.96 in 10.0 mi SSE 8.1 mph - N/A   Clear
3:55 PM 71.2 °F 44.8 °F 39% 29.95 in 10.0 mi SSE 6.9 mph - N/A   Clear
4:15 PM 70.9 °F 46.8 °F 42% 29.94 in 10.0 mi SE 3.5 mph - N/A   Clear
4:35 PM 70.9 °F 46.6 °F 42% 29.94 in 10.0 mi SE 5.8 mph - N/A   Clear
4:55 PM 71.1 °F 46.8 °F 42% 29.94 in 10.0 mi ESE 5.8 mph - N/A   Clear
5:15 PM 70.7 °F 47.3 °F 43% 29.94 in 10.0 mi SE 4.6 mph - N/A   Clear
5:35 PM 69.8 °F 47.8 °F 46% 29.94 in 10.0 mi ESE 5.8 mph - N/A   Clear
5:55 PM 69.1 °F 48.0 °F 47% 29.95 in 10.0 mi SE 5.8 mph - N/A   Clear
6:15 PM 67.6 °F 48.4 °F 50% 29.94 in 10.0 mi SE 4.6 mph - N/A   Clear
6:35 PM 65.7 °F 49.1 °F 55% 29.94 in 10.0 mi SE 3.5 mph - N/A   Clear
6:55 PM 61.7 °F 50.2 °F 66% 29.94 in 10.0 mi ESE 3.5 mph - N/A   Clear
7:15 PM 56.8 °F 50.9 °F 80% 29.95 in 10.0 mi Calm Calm - N/A   Clear
7:35 PM 54.5 °F 51.1 °F 88% 29.95 in 10.0 mi ESE 4.6 mph - N/A   Clear
7:55 PM 52.0 °F 50.0 °F 93% 29.95 in 10.0 mi ESE 3.5 mph - N/A   Clear
8:15 PM 51.4 °F 50.5 °F 97% 29.96 in 10.0 mi ESE 3.5 mph - N/A   Clear
8:35 PM 50.4 °F 50.0 °F 99% 29.96 in 10.0 mi East 4.6 mph - N/A   Clear
8:55 PM 50.0 °F 50.0 °F 100% 29.95 in 10.0 mi East 3.5 mph - N/A   Clear
9:15 PM 47.8 °F 47.7 °F 99% 29.96 in 10.0 mi Calm Calm - N/A   Clear
9:35 PM 48.6 °F 48.6 °F 100% 29.96 in 10.0 mi Calm Calm - N/A   Clear
9:55 PM 46.0 °F 46.0 °F 100% 29.96 in 7.0 mi Calm Calm - N/A   Clear
10:15 PM 44.8 °F 44.8 °F 100% 29.97 in 5.0 mi Calm Calm - N/A   Clear
10:35 PM 46.4 °F 46.4 °F 100% 29.97 in 5.0 mi Calm Calm - N/A   Clear
10:55 PM 43.7 °F 43.7 °F 100% 29.97 in 7.0 mi Calm Calm - N/A   Clear
11:15 PM 43.3 °F 43.3 °F 100% 29.97 in 5.0 mi Calm Calm - N/A   Clear
11:35 PM 42.4 °F 42.4 °F 100% 29.97 in 5.0 mi Calm Calm - N/A   Clear
11:55 PM 43.9 °F 43.9 °F 100% 29.97 in 1.2 mi Calm Calm - N/A   Mist